OE5RLP-14 Weather Reports


time (UTC)temp
F
wind
direction
speed
knots
gust
knots
rain 1hr
in
rain 24hr
in
rain mn
in
humidity
%
barometer
mb
20260906005329 63 281 3.5 5.2 0.00 0.11 0.00 77 1027.7
20260906004326 63 262 2.6 3.5 0.00 0.11 0.00 78 1027.7
20260906003323 64 277 1.7 2.6 0.00 0.11 0.00 79 1027.8
20260906002320 64 261 1.7 2.6 0.00 0.11 0.00 80 1027.7
20260906001318 64 264 2.6 2.6 0.00 0.11 0.00 81 1027.7
20260906000345 64 233 1.7 3.5 0.00 0.11 0.00 82 1027.8
20260905235342 64 280 2.6 3.5 0.00 0.11 0.00 82 1027.7
20260905234339 64 260 1.7 5.2 0.00 0.11 0.00 83 1027.4
20260905233336 64 228 1.7 1.7 0.00 0.11 0.00 83 1027.6
20260905232334 64 264 2.6 5.2 0.00 0.11 0.00 83 1027.4
20260905231330 64 273 3.5 5.2 0.00 0.11 0.00 83 1027.4
20260905230327 64 291 3.5 6.1 0.00 0.11 0.00 84 1027.4
20260905225324 64 253 4.3 7.0 0.00 0.11 0.00 85 1027.4
20260905224322 64 232 1.7 3.5 0.00 0.11 0.00 86 1027.4
20260905223319 64 261 4.3 5.2 0.00 0.11 0.00 86 1027.2
20260905222317 64 259 5.2 8.7 0.00 0.11 0.00 86 1027.1
20260905221343 64 282 3.5 3.5 0.00 0.11 0.00 85 1027.1
20260905220342 65 279 5.2 7.0 0.00 0.11 0.00 83 1027.0
20260905215337 65 248 3.5 5.2 0.00 0.11 0.11 79 1027.1
20260905214414 65 290 4.3 7.0 0.00 0.11 0.11 76 1027.0
20260905213331 65 293 6.1 7.8 0.00 0.11 0.11 76 1026.6
20260905212410 65 285 6.1 7.8 0.00 0.11 0.11 74 1026.4
20260905211326 65 299 4.3 5.2 0.00 0.11 0.11 74 1026.2
20260905210323 65 307 3.5 3.5 0.00 0.11 0.11 72 1026.1
20260905205320 66 291 1.7 3.5 0.00 0.11 0.11 70 1026.0
20260905204318 66 252 1.7 2.6 0.00 0.11 0.11 69 1025.9
20260905203345 67 267 4.3 6.1 0.00 0.11 0.11 69 1026.2
20260905202344 67 285 2.6 5.2 0.00 0.11 0.11 69 1025.9
20260905201339 66 240 4.3 9.6 0.00 0.11 0.11 69 1026.0
20260905200336 67 246 5.2 11.3 0.00 0.11 0.11 68 1025.7
20260905195333 66 198 2.6 5.2 0.00 0.11 0.11 69 1026.2
20260905194330 66 229 2.6 3.5 0.00 0.11 0.11 68 1025.8
20260905193349 66 239 3.5 6.1 0.00 0.11 0.11 67 1025.8
20260905192324 66 256 2.6 3.5 0.00 0.11 0.11 67 1025.8
20260905191321 66 202 3.5 5.2 0.00 0.11 0.11 65 1025.6
20260905190320 66 268 3.5 3.5 0.00 0.11 0.11 64 1025.7
20260905185316 66 239 2.6 7.0 0.00 0.11 0.11 62 1025.5
20260905184343 66 232 3.5 5.2 0.00 0.11 0.11 62 1025.4
20260905183340 66 263 4.3 5.2 0.00 0.11 0.11 63 1025.3
20260905182358 66 272 2.6 3.5 0.00 0.11 0.11 63 1025.2
20260905181335 65 248 3.5 7.0 0.00 0.11 0.11 63 1025.2
20260905180331 65 261 2.6 3.5 0.00 0.11 0.11 64 1025.0
20260905175328 66 247 3.5 7.8 0.00 0.11 0.11 64 1024.9
20260905174325 66 282 3.5 5.2 0.00 0.11 0.11 64 1024.7
20260905173322 67 255 5.2 7.8 0.00 0.11 0.11 63 1024.7
20260905172320 67 283 5.2 7.0 0.00 0.11 0.11 62 1024.6
20260905171317 68 265 2.6 5.2 0.00 0.11 0.11 62 1024.8
20260905170404 68 239 4.3 7.8 0.00 0.11 0.11 64 1024.6
20260905165342 68 230 2.6 3.5 0.00 0.11 0.11 65 1024.5
20260905164338 68 239 2.6 3.5 0.00 0.11 0.11 64 1024.8
20260905163335 68 260 7.0 8.7 0.00 0.11 0.11 66 1024.6
20260905162352 69 280 4.3 7.0 0.00 0.11 0.11 66 1024.6
20260905161330 69 294 5.2 7.0 0.00 0.11 0.11 67 1024.5
20260905160327 69 283 8.7 12.2 0.00 0.11 0.11 67 1024.6
20260905155345 69 277 3.5 5.2 0.00 0.11 0.11 69 1024.3
20260905154321 69 289 4.3 9.6 0.00 0.11 0.11 67 1024.3
20260905153318 69 269 7.0 13.0 0.00 0.11 0.11 66 1024.3
20260905152345 69 298 7.8 12.2 0.00 0.11 0.11 65 1024.5
20260905151342 69 291 6.1 7.8 0.00 0.11 0.11 66 1024.6
20260905150339 69 280 8.7 13.0 0.00 0.11 0.11 67 1024.3
20260905145336 69 280 3.5 5.2 0.00 0.11 0.11 66 1024.4
20260905144333 69 305 9.6 14.8 0.00 0.11 0.11 67 1024.2
20260905143331 69 277 7.0 13.0 0.00 0.11 0.11 65 1024.3
20260905142329 68 293 6.1 7.0 0.00 0.11 0.11 69 1024.6
20260905141347 68 304 12.2 20.0 0.00 0.11 0.11 67 1024.4
20260905140324 69 287 6.1 11.3 0.00 0.11 0.11 69 1024.1
20260905135319 69 276 8.7 16.5 0.00 0.11 0.11 68 1024.1
20260905134316 69 286 7.8 12.2 0.00 0.11 0.11 68 1024.0
20260905133343 69 295 10.4 13.9 0.00 0.11 0.11 67 1024.2
20260905132340 70 303 6.1 9.6 0.00 0.11 0.11 66 1024.4
20260905131337 71 285 11.3 13.0 0.00 0.11 0.11 67 1024.2
20260905130334 70 303 8.7 13.9 0.00 0.11 0.11 67 1024.3
20260905125332 70 292 5.2 9.6 0.00 0.11 0.11 69 1024.5
20260905124329 70 288 7.0 11.3 0.00 0.11 0.11 68 1024.7
20260905123326 69 293 12.2 22.6 0.00 0.11 0.11 67 1024.5
20260905122322 68 225 3.5 5.2 0.00 0.11 0.11 70 1024.5
20260905121320 69 299 8.7 13.9 0.00 0.11 0.11 70 1024.6
20260905120318 68 281 12.2 13.9 0.00 0.11 0.11 70 1024.6
20260905115405 69 297 9.6 13.9 0.00 0.11 0.11 70 1024.7
20260905114341 70 286 7.0 12.2 0.00 0.11 0.11 67 1024.6
20260905113340 70 300 8.7 13.9 0.00 0.11 0.11 70 1024.6
20260905112335 69 324 7.0 8.7 0.00 0.11 0.11 69 1024.4
20260905111353 69 294 7.8 13.0 0.00 0.11 0.11 69 1024.6
20260905110330 68 301 7.8 12.2 0.00 0.11 0.11 71 1024.4
20260905105327 68 301 7.0 13.0 0.00 0.11 0.11 70 1024.3
20260905104324 68 271 5.2 8.7 0.00 0.11 0.11 72 1024.5
20260905103343 68 291 5.2 7.0 0.00 0.11 0.11 71 1024.4
20260905102318 67 249 1.7 2.6 0.00 0.11 0.11 72 1024.5
20260905101417 67 295 3.5 5.2 0.00 0.11 0.11 75 1024.5
20260905100342 67 281 2.6 5.2 0.00 0.11 0.11 77 1024.7
20260905095340 65 270 4.3 7.0 0.00 0.11 0.11 77 1024.7
20260905094337 64 193 1.7 1.7 0.00 0.11 0.11 83 1024.4
20260905093336 62 178 2.6 3.5 0.00 0.11 0.11 90 1024.6
20260905092351 61 194 4.3 6.1 0.00 0.11 0.11 92 1024.5
20260905091330 60 192 3.5 6.1 0.00 0.11 0.11 92 1024.7
20260905090325 60 186 1.7 2.6 0.01 0.11 0.11 92 1024.8
20260905085322 59 263 1.7 3.5 0.02 0.11 0.11 93 1024.9
20260905084320 58 178 3.5 5.2 0.02 0.11 0.11 94 1025.2
20260905083318 58 168 4.3 7.0 0.02 0.11 0.11 95 1024.9
20260905082344 58 160 3.5 6.1 0.02 0.11 0.11 95 1025.0
20260905081341 58 171 1.7 3.5 0.04 0.11 0.11 95 1025.0
20260905080338 58 222 2.6 2.6 0.04 0.10 0.10 95 1025.0
20260905075335 58 216 0.9 1.7 0.04 0.09 0.09 95 1025.1
20260905074333 58 206 1.7 2.6 0.04 0.09 0.09 94 1025.2
20260905073354 57 192 1.7 3.5 0.04 0.09 0.09 94 1024.9
20260905072326 57 261 1.7 2.6 0.03 0.08 0.08 94 1024.5
20260905071323 57 291 3.5 3.5 0.02 0.07 0.07 93 1024.7
20260905070340 58 288 3.5 5.2 0.01 0.06 0.06 93 1024.8
20260905065319 59 305 2.6 2.6 0.00 0.06 0.06 91 1024.3
20260905064347 60 327 6.1 11.3 0.00 0.05 0.05 88 1024.4
20260905063342 61 36 0.9 0.9 0.00 0.05 0.05 88 1024.5
20260905062400 61 63 0.9 0.9 0.00 0.05 0.05 88 1024.2
20260905061337 61 9 1.7 1.7 0.00 0.05 0.05 87 1024.2
20260905060334 62 46 4.3 7.8 0.00 0.05 0.05 85 1023.3
20260905055353 64 79 5.2 7.0 0.00 0.05 0.05 82 1022.8
20260905054348 65 308 3.5 5.2 0.00 0.05 0.05 84 1022.8
20260905053326 65 285 5.2 7.8 0.01 0.05 0.05 85 1022.4
20260905052324 65 311 3.5 5.2 0.01 0.05 0.05 87 1022.3
20260905051319 65 287 8.7 12.2 0.01 0.05 0.05 87 1022.2
20260905050316 65 281 7.8 11.3 0.01 0.05 0.05 88 1021.8
20260905045344 67 299 4.3 7.0 0.01 0.05 0.05 87 1021.3
20260905044341 69 298 4.3 6.1 0.00 0.05 0.05 81 1020.7
20260905043400 71 288 6.1 8.7 0.00 0.04 0.04 73 1020.3
20260905042336 71 265 4.3 7.8 0.00 0.04 0.04 71 1019.4
20260905041334 69 221 0.9 2.6 0.00 0.04 0.04 75 1019.5
20260905040330 68 202 2.6 5.2 0.00 0.04 0.04 82 1019.4
20260905035329 67 159 2.6 3.5 0.00 0.04 0.04 82 1019.1
20260905034324 67 188 3.5 3.5 0.00 0.04 0.04 82 1018.9
20260905033323 68 194 3.5 7.0 0.00 0.04 0.04 82 1019.1
20260905032340 68 202 4.3 6.1 0.00 0.04 0.04 81 1019.2
20260905031316 68 182 4.3 7.8 0.00 0.04 0.04 79 1019.0
20260905030343 70 196 4.3 7.8 0.01 0.04 0.04 75 1018.9
20260905025340 70 207 6.1 7.8 0.04 0.04 0.04 74 1019.3
20260905024342 70 213 5.2 7.8 0.04 0.04 0.04 73 1019.3
20260905023335 69 231 3.5 6.1 0.04 0.04 0.04 76 1019.2
20260905022333 68 208 3.5 5.2 0.04 0.04 0.04 79 1019.1
20260905021349 68 222 2.6 3.5 0.04 0.04 0.04 81 1018.9
20260905020326 70 284 2.6 7.0 0.04 0.04 0.04 76 1019.1
20260905015343 72 228 3.5 5.2 0.01 0.01 0.01 67 1019.1
20260905014322 75 301 4.3 6.1 0.00 0.00 0.00 57 1018.6
20260905013318 74 293 3.5 6.1 0.00 0.00 0.00 58 1018.3
20260905012345 74 284 1.7 2.6 0.00 0.00 0.00 59 1018.6
20260905011343 74 289 3.5 3.5 0.00 0.00 0.00 59 1018.6
20260905010343 75 303 5.2 7.8 0.00 0.00 0.00 57 1018.3